Regional Weather Roundup
Issued by NWS

Home | Current Version | Previous Version | Graphics & Text | Print | Product List | Glossary On
Versions: 1 2 3 4 5 6 7 8 9 10 11 12 13 14 15 16 17 18 19 20 21 22 23 24 25 26 27 28 29 30 31 32 33 34 35 36 37 38 39 40 41 42 43 44 45 46 47 48 49 50
409
ASUS45 KCYS 171910
RWRWY

WYOMING REGIONAL WEATHER ROUNDUP
NATIONAL WEATHER SERVICE CHEYENNE WY
1200 PM MST FRI NOV 17 2017

NOTE:  "FAIR" INDICATES FEW OR NO CLOUDS BELOW 12,000 FEET
WITH NO SIGNIFICANT WEATHER AND/OR OBSTRUCTIONS TO VISIBILITY.

WYZ001-172000-
YELLOWSTONE NATIONAL PARK

CITY           SKY/WX    TMP DP  RH WIND       PRES   REMARKS
LK YELLOWSTONE   N/A     24  20  84 W9        29.71S WCI  14
W YELLOWSTONE  NOT AVBL

$$
WYZ002>013-054>058-071-098>099-172000-
NORTHERN WYOMING

CITY           SKY/WX    TMP DP  RH WIND       PRES   REMARKS
JACKSON        LGT SNOW  30  27  86 N6        29.72R VSB 3/4 WCI  24
CODY           FAIR      39  26  59 W8        29.67S WCI  33
GREYBULL       PTSUNNY   41  35  79 NW9       29.64F
WORLAND        CLOUDY    37  35  92 VRB5      29.67R WCI  33
SHERIDAN       CLOUDY    37  34  89 S7        29.64F WCI  32
BUFFALO        CLOUDY    32  31  96 SW3       29.67F
GILLETTE       CLOUDY    35  34  96 N12       29.67R WCI  27
HULETT         FLURRIES  36  34  93 SW3       29.66S
NEWCASTLE      CLOUDY    39  32  75 S13       29.65S WCI  32

$$
WYZ014>020-022>026-101>103-172000-
CENTRAL WYOMING

CITY           SKY/WX    TMP DP  RH WIND       PRES   REMARKS
BIG PINEY      CLOUDY    32  26  78 NW10      29.72F WCI  24
PINEDALE       FAIR      34  25  69 NW20      29.71F WCI  22
DUBOIS         FAIR      32  23  69 NW13G20   29.63S WCI  22
LANDER         NOT AVBL
RIVERTON       FAIR      47  26  44 SW10      29.59F
CASPER         CLOUDY    41  36  82 SW20      29.62F
DOUGLAS        LGT RAIN  43  39  86 S7        29.63F

$$
WYZ021-027>030-104>119-172000-
SOUTHERN WYOMING

CITY           SKY/WX    TMP DP  RH WIND       PRES   REMARKS
EVANSTON       SNOW      31  31 100 SW16      29.75F VSB 1/4 WCI  20
FORT BRIDGER   LGT SNOW  34  34 100 SW18      29.78F WCI  23
ROCK SPRINGS   SNOW      31  30  96 SW16      29.74  VSB 1/4 WCI  20
DIXON          LGT SNOW  33  32  96 CALM      29.76F
RAWLINS        SNOW      33  32  96 NW17      29.72F WCI  22
SARATOGA       LGT SNOW  34  34 100 E9        29.73F WCI  26
LARAMIE        LGT SNOW  33  33 100 NW9       29.68F FOG     WCI  25
CHEYENNE       PTSUNNY   49  35  58 VRB3      29.62F
TORRINGTON     LGT RAIN  43  35  73 N5        29.63S
PINE BLUFFS    FAIR      46  32  57 E5        29.62F

$$




USA.gov is the U.S. government's official web portal to all federal, state and local government web resources and services.